This is the latest recevied weather packets stored in our database for station/object IK2ILW-4. If no packets are shown the sender has not sent any weather packets the latest 10 day(s).
| Time | Temp. | Humidity | Pressure | Rain* | Wind** | Luminosity | Snow |
|---|---|---|---|---|---|---|---|
| 1787832770 | 22.22° C | 76% | 1023.5 hPa | 0 mm | - | 728 W/m² | - |
| 1787832458 | 22.22° C | 75% | 1023.5 hPa | 0 mm | - | 668 W/m² | - |
| 1787832170 | 22.22° C | 78% | 1023.5 hPa | 0 mm | - | 726 W/m² | - |
| 1787831871 | 22.22° C | 77% | 1023.5 hPa | 0 mm | - | 761 W/m² | - |
| 1787831566 | 21.67° C | 78% | 1023.5 hPa | 0 mm | - | 424 W/m² | - |
| 1787831272 | 21.67° C | 79% | 1023.5 hPa | 0 mm | - | 388 W/m² | - |
| 1787830963 | 21.11° C | 79% | 1023.6 hPa | 0 mm | - | 199 W/m² | - |
| 1787830663 | 21.67° C | 77% | 1023.6 hPa | 0 mm | - | 214 W/m² | - |
| 1787830372 | 22.22° C | 76% | 1023.6 hPa | 0 mm | - | 626 W/m² | - |
| 1787830060 | 22.22° C | 76% | 1023.7 hPa | 0 mm | - | 394 W/m² | - |
| 1787829759 | 21.67° C | 77% | 1023.7 hPa | 0 mm | - | 392 W/m² | - |
| 1787829467 | 21.11° C | 77% | 1023.7 hPa | 0 mm | - | 582 W/m² | - |
| 1787829160 | 21.11° C | 77% | 1023.7 hPa | 0 mm | - | 264 W/m² | - |
| 1787828857 | 20.56° C | 78% | 1023.7 hPa | 0 mm | - | 661 W/m² | - |
| 1787828566 | 20.56° C | 77% | 1023.7 hPa | 0 mm | - | 255 W/m² | - |
| 1787828254 | 20.56° C | 77% | 1023.4 hPa | 0 mm | - | 243 W/m² | - |
| 1787827963 | 21.11° C | 77% | 1023.4 hPa | 0 mm | - | 271 W/m² | - |
| 1787827669 | 21.11° C | 78% | 1023.4 hPa | 0 mm | - | 519 W/m² | - |
| 1787827364 | 21.11° C | 77% | 1023.5 hPa | 0 mm | - | 642 W/m² | - |
| 1787827061 | 21.11° C | 76% | 1023.5 hPa | 0 mm | - | 522 W/m² | - |
| 1787826768 | 20.56° C | 77% | 1023.5 hPa | 0 mm | - | 613 W/m² | - |
| 1787826454 | 21.11° C | 75% | 1023.5 hPa | 0 mm | - | 552 W/m² | - |
| 1787826167 | 21.11° C | 77% | 1023.5 hPa | 0 mm | - | 529 W/m² | - |
| 1787825874 | 21.11° C | 76% | 1023.5 hPa | 0 mm | - | 448 W/m² | - |
| 1787825571 | 21.11° C | 76% | 1023.4 hPa | 0 mm | - | 492 W/m² | - |
* Rain since midnight (hover to see other rain measurements)
** Current wind speed in m/s (hover to see current wind gust speed)